Tracking 31027 objects as of 19-Jul-2025
HD Live streaming from Space Station
objects crossing your sky now

DELTA 1 DEB

Track DELTA 1 DEB now!
10-day predictions


NORAD ID: 5975
Int'l Code: 1970-021C
Perigee: 309.0 km
Apogee: 25,437.8 km
Inclination: 25.7 °
Period: 442.8 minutes
Semi major axis: 19244 km
RCS: 1.8414 m2 (large)
Launch date: March 20, 1970
Source: United States (US)
Launch site: AIR FORCE EASTERN TEST RANGE (AFETR)

Note: This is SATELLITE DEBRIS
Your satellite tracking list
FLOCK 3P 17
Track 1 satellite(s)




NASA's NSSDC Master Catalog

Two Line Element Set (TLE):
1  5975U 70021C   25199.61604189  .00006289  00000-0  25986-2 0  9994
2  5975  25.6533  65.2091 6528877  47.6909 351.7069  3.25197985361968
Source of the keplerian elements: AFSPC